Weather History for San Luis Obispo, CA

Change the Weather History Date:

Monday, November 26, 2012

  Actual Average Record
Temperature  
Mean Temperature 54 °F -  
Max Temperature 61 °F 67 °F 85 °F (1959)
Min Temperature 48 °F 44 °F 30 °F (2010)
Degree Days  
Heating Degree Days 10    
Growing Degree Days 4 (Base 50)    
Moisture  
Dew Point 50 °F    
Average Humidity 85    
Maximum Humidity 100    
Minimum Humidity 67    
Precipitation  
Precipitation 0.00 in - - ()
Sea Level Pressure  
Sea Level Pressure 30.04 in    
Wind  
Wind Speed 4 mph (SE)    
Max Wind Speed 9 mph    
Max Gust Speed -    
Visibility 8 miles    
Events Fog    
Averages and records for this station are not official NWS values.
T = Trace of Precipitation, MM = Missing Value Source: NWS Daily Summary

Daily Weather History Graph

Daily Weather History Graph

Search for Another Location

Airport:

Trip Planner

Search our weather history database for the weather conditions in past years. The results will help you decide how hot, cold, wet, or windy it might be!

Date:

Astronomy

Nov. 26, 2012 Rise Set
Actual Time 6:48 AM PST 4:51 PM PST
Civil Twilight 6:21 AM PST 5:18 PM PST
Nautical Twilight 5:49 AM PST 5:50 PM PST
Astronomical Twilight 5:19 AM PST 6:20 PM PST
Moon 3:45 PM PST (11/26) 5:05 AM PST (11/26)
Length of Visible Light 10h 57m
Length of Day
10h 02m
Waxing Gibbous, 97% of the Moon is Illuminated
Nov 26
Waxing Gibbous
Nov 28
Full
Dec 6
Last Quarter
Dec 13
New
Dec 19
First Quarter

Hourly Weather History & Observations

Time (PST) Temp. Dew Point Humidity Pressure Visibility Wind Dir Wind Speed Gust Speed Precip Events Conditions
12:05 AM 51.8 °F 51.8 °F 100% 29.97 in 0.5 mi East 5.8 mph - N/A Fog Fog
12:56 AM 52.0 °F 51.1 °F 97% 29.98 in 0.8 mi ESE 3.5 mph - N/A   Mist
1:12 AM 51.8 °F 51.8 °F 100% 29.98 in 1.2 mi ESE 4.6 mph - N/A   Overcast
1:56 AM 51.1 °F 50.0 °F 96% 29.99 in 2.0 mi ENE 6.9 mph - N/A   Overcast
2:28 AM 51.8 °F 50.0 °F 94% 30.00 in 3.0 mi ENE 4.6 mph - N/A   Overcast
2:56 AM 51.1 °F 50.0 °F 96% 30.01 in 4.0 mi East 4.6 mph - N/A   Overcast
3:56 AM 52.0 °F 51.1 °F 97% 30.01 in 10.0 mi SE 3.5 mph - N/A   Overcast
4:38 AM 51.8 °F 50.0 °F 94% 30.01 in 10.0 mi Calm Calm - N/A   Overcast
4:56 AM 52.0 °F 51.1 °F 97% 30.01 in 9.0 mi SSE 4.6 mph - N/A   Overcast
5:11 AM 51.8 °F 50.0 °F 94% 30.02 in 10.0 mi SSE 3.5 mph - N/A   Overcast
5:56 AM 52.0 °F 50.0 °F 93% 30.03 in 10.0 mi SSE 4.6 mph - N/A   Overcast
6:56 AM 51.1 °F 48.9 °F 92% 30.04 in 10.0 mi SE 4.6 mph - N/A   Overcast
7:56 AM 53.1 °F 48.0 °F 83% 30.06 in 10.0 mi East 6.9 mph - N/A   Overcast
8:56 AM 53.1 °F 48.0 °F 83% 30.07 in 10.0 mi SE 6.9 mph - N/A   Overcast
9:56 AM 55.9 °F 48.0 °F 75% 30.08 in 10.0 mi Calm Calm - N/A   Overcast
10:03 AM 57.2 °F 48.2 °F 72% 30.08 in 10.0 mi East 3.5 mph - N/A   Overcast
10:56 AM 57.9 °F 48.9 °F 72% 30.07 in 10.0 mi Calm Calm - N/A   Scattered Clouds
11:56 AM 59.0 °F 50.0 °F 72% 30.06 in 10.0 mi WSW 9.2 mph - N/A   Mostly Cloudy
12:56 PM 60.1 °F 50.0 °F 69% 30.05 in 10.0 mi SW 6.9 mph - N/A   Overcast
1:56 PM 61.0 °F 50.0 °F 67% 30.04 in 10.0 mi WSW 5.8 mph - N/A   Mostly Cloudy
2:56 PM 60.1 °F 50.0 °F 69% 30.04 in 10.0 mi West 5.8 mph - N/A   Scattered Clouds
3:03 PM 60.8 °F 50.0 °F 68% 30.04 in 10.0 mi WSW 6.9 mph - N/A   Scattered Clouds
3:56 PM 59.0 °F 50.0 °F 72% 30.04 in 10.0 mi WSW 5.8 mph - N/A   Scattered Clouds
4:56 PM 57.9 °F 50.0 °F 75% 30.04 in 10.0 mi Calm Calm - N/A   Scattered Clouds
5:49 PM 55.4 °F 50.0 °F 82% 30.06 in 10.0 mi Calm Calm - N/A   Mostly Cloudy
5:56 PM 55.9 °F 50.0 °F 80% 30.06 in 10.0 mi Calm Calm - N/A   Mostly Cloudy
6:56 PM 55.9 °F 50.0 °F 80% 30.06 in 10.0 mi Calm Calm - N/A   Overcast
7:56 PM 55.0 °F 50.0 °F 83% 30.07 in 10.0 mi Calm Calm - N/A   Mostly Cloudy
8:18 PM 53.6 °F 50.0 °F 88% 30.06 in 10.0 mi Calm Calm - N/A   Partly Cloudy
8:56 PM 53.1 °F 50.0 °F 89% 30.08 in 9.0 mi Calm Calm - N/A   Clear
9:56 PM 51.1 °F 48.0 °F 89% 30.08 in 8.0 mi Calm Calm - N/A   Clear
10:56 PM 50.0 °F 46.9 °F 89% 30.10 in 8.0 mi ESE 4.6 mph - N/A   Scattered Clouds
11:10 PM 48.2 °F 46.4 °F 93% 30.11 in 8.0 mi Calm Calm - N/A   Mostly Cloudy
11:56 PM 50.0 °F 48.0 °F 93% 30.12 in 8.0 mi Calm Calm - N/A   Overcast